#timestamp,LO_Frequency,Hit 
1504548015.4,286046992.7,N
1504548035.3,286046996.4,N
1504548055.1,286046996.1,N
1504548056.0,286046996.1,N
1504548075.8,286046993.6,N
1504548095.7,286046994.6,N
1504548115.5,286046993.6,N
1504548135.4,286046992.0,N
1504548155.2,286046988.0,N
1504548175.1,286046986.8,N
1504548176.0,286046986.8,N
1504548195.8,286046982.5,N
1504548215.6,286046983.5,N
1504548235.5,286046986.8,N
1504548255.3,286046984.6,N
1504548275.2,286046984.2,N
1504548295.0,286046986.8,N
1504548295.9,286046986.8,N
1504548315.8,286046983.8,P
1504548335.6,286046995.5,N
1504548355.4,286046995.2,N
1504548375.3,286046994.5,N
1504548395.1,286046993.3,N
1504548415.8,286046994.7,N
1504548435.7,286046993.9,N
1504548455.5,286046994.2,N
1504548475.3,286046991.8,N
1504548495.2,286046992.0,N
1504548515.9,286046992.4,N
1504548535.7,286046992.2,N
1504548555.6,286046990.5,P
1504548575.4,286046998.2,N
1504548595.3,286047002.4,N
1504548615.1,286047000.8,N
1504548635.8,286046998.1,N
1504548655.7,286047002.2,N
1504548675.5,286047009.0,N
1504548695.4,286047015.5,N
1504548715.2,286047018.0,N
1504548735.1,286047020.0,N
1504548736.0,286047020.0,N
1504548755.8,286047021.1,N
1504548775.6,286047024.4,N
1504548795.5,286047024.2,N
1504548815.3,286047027.5,N
1504548835.1,286047027.5,N
1504548855.9,286047029.5,N
1504548875.7,286047027.9,N
1504548895.6,286047023.9,N
1504548915.5,286047025.5,N
1504548935.3,286047025.5,N
1504548955.1,286047025.3,N
1504548975.9,286047024.9,N
1504548995.7,286047023.3,N
1504549015.5,286047026.8,N
1504549035.4,286047026.3,N
1504549055.2,286047026.0,N
1504549075.1,286047028.0,N
1504549095.9,286047027.8,N
1504549115.7,286047027.2,N
1504549135.6,286047031.5,N
1504549155.4,286047030.8,P
1504549175.3,286047008.8,N
1504549195.1,286047012.4,N
1504549215.8,286047006.3,N
1504549235.7,286047007.2,N
1504549255.5,286047008.9,N
1504549275.3,286047008.5,N
1504549295.2,286047010.6,N
1504549315.9,286047010.8,N
1504549335.7,286047009.6,N
1504549355.6,286047009.6,N
1504549375.4,286047010.2,N
1504549395.2,286047008.2,N
1504549415.1,286047007.8,N
1504549416.0,286047007.8,N
1504549435.8,286047011.6,N
1504549455.8,286047010.2,N
1504549475.6,286047006.3,N
1504549495.4,286047009.5,N
1504549515.3,286047012.2,N
1504549535.1,286047008.0,N
1504549555.9,286047004.7,N
1504549575.7,286047009.0,N
1504549595.6,286047010.2,N
1504549615.4,286047012.1,N
1504549635.2,286047009.3,N
1504549655.0,286047012.0,N
1504549656.0,286047012.0,N
1504549675.8,286047012.7,N
1504549695.7,286047013.3,N
1504549715.5,286047011.1,N
1504549735.3,286047008.1,P
1504549755.2,286046994.9,P
1504549775.0,286046997.7,N
1504549775.9,286046997.7,N
1504549795.7,286046995.8,N
1504549815.6,286046993.5,N
1504549835.4,286046992.0,N
1504549855.2,286046993.0,N
1504549875.1,286046987.6,N
1504549876.0,286046987.6,N
1504549895.8,286046985.7,N
1504549915.6,286046985.6,N
1504549935.5,286046986.5,N
1504549955.3,286046982.3,N
1504549975.1,286046984.3,N
1504549995.9,286046985.1,N
1504550015.7,286046982.5,N
1504550035.5,286046984.5,N
1504550055.4,286046982.2,N
1504550075.2,286046984.4,N
1504550095.0,286046983.5,N
1504550095.9,286046983.5,N
1504550115.8,286046983.5,N
1504550135.6,286046979.9,N
1504550155.4,286046982.0,N
1504550175.3,286046979.6,N
1504550195.1,286046981.7,N
1504550196.0,286046981.7,N
1504550215.8,286046981.0,N
1504550235.7,286046981.4,N
1504550255.5,286046979.8,P
1504550275.4,286046992.1,N
1504550295.2,286046994.8,N
1504550315.0,286046990.2,N
1504550315.9,286046990.2,N
1504550335.8,286046992.9,N
1504550355.6,286046992.5,N
1504550375.4,286046990.2,N
1504550395.3,286046985.4,P
1504550415.1,286046997.5,N
1504550435.9,286046997.0,N
1504550455.7,286046999.3,N
1504550475.5,286046995.3,N
1504550495.4,286046994.4,N
1504550515.2,286046993.1,N
1504550535.0,286046992.0,N
1504550535.9,286046992.0,N
1504550555.8,286046994.4,N
1504550575.6,286046993.9,N
1504550595.4,286046995.0,N
1504550615.3,286046998.8,N
1504550635.1,286047005.3,N
1504550655.8,286047006.5,N
1504550675.7,286047010.7,N
1504550695.5,286047015.6,N
1504550715.3,286047017.6,N
1504550735.2,286047021.3,N
1504550755.0,286047020.7,N
1504550755.9,286047020.7,N
1504550775.8,286047020.1,N
1504550795.6,286047019.1,N
1504550815.5,286047023.8,N
1504550835.3,286047025.5,N
1504550855.1,286047024.5,N
1504550875.8,286047022.3,N
1504550895.7,286047025.1,N
1504550915.5,286047024.1,N
1504550935.4,286047025.3,N
1504550955.3,286047028.1,N
1504550975.1,286047024.0,N
1504550976.0,286047024.0,N
1504550995.8,286047020.6,N
1504551015.7,286047023.5,N
1504551035.5,286047024.3,N
1504551055.3,286047024.9,N
1504551075.2,286047025.0,N
1504551095.9,286047026.6,N
1504551115.7,286047027.9,N
1504551135.5,286047026.6,N
1504551155.4,286047024.2,N
1504551175.2,286047027.9,P
1504551195.1,286047004.7,N
1504551196.0,286047004.7,N
1504551215.8,286047005.3,N
1504551235.6,286047006.1,N
1504551255.5,286047007.4,N
1504551275.3,286047006.9,N
1504551295.1,286047007.2,N
1504551315.8,286047006.7,N
1504551335.7,286047005.6,N
1504551355.5,286047007.6,N
1504551375.3,286047005.7,N
1504551395.2,286047003.6,N
1504551415.9,286047001.4,N
1504551435.7,286047005.9,N
1504551455.6,286047005.1,N
1504551475.4,286047005.6,N
1504551495.2,286047006.6,N
1504551515.1,286047006.9,N
1504551516.0,286047006.9,N
1504551535.8,286047010.2,N
1504551555.6,286047007.8,N
1504551575.5,286047009.2,N
1504551595.3,286047007.2,N
